[[{"header":{"parameterUnit":"m.s-1","parameterCategory":1,"la1":30.2991,"la2":30.254,"lo1":-89.0895,"lo2":-89.0444,"dy":0.0017,"dx":0.0017,"nx":28,"ny":28,"refTime":"2024-04-28T21:00:00:Z","depth":0,"parameterNumber":2,"parameterNumberName":"U-component_of_WINDS"},"data":[0,0,0,0,0,0,0,0,0,0,0,0,0,0,0,0,0,0,0,0,0,0,0,0,0,0,0,0,0,0,0,0,0,0,0,0,0,0,0,0,0,0,0,0,0,0,0,0,0,0,0,0,0,0,0,0,0,0,-7.0834,-7.0836,0,-7.0958,-7.096,-7.0961,-7.0945,-7.0943,-7.0941,-7.0939,-7.1064,-7.1069,-7.1074,0,0,0,0,0,0,0,0,0,0,0,0,0,-7.0584,-7.0589,-7.0834,-7.0836,-7.0837,-7.0958,-7.096,-7.0961,-7.0946,-7.0943,-7.0941,-7.0939,-7.1062,-7.1068,-7.1075,0,0,0,0,0,0,0,0,0,0,0,0,0,-7.0699,-7.059,-7.0834,-7.0844,-7.0846,-7.0958,-7.096,-7.0962,-7.0946,-7.0943,-7.094,-7.0937,-7.106,-7.1068,-7.1075,-7.1184,0,0,-7.1099,-7.1103,0,0,0,0,0,0,0,0,-7.0692,-7.0708,-7.0841,-7.0844,-7.0846,-7.0933,-7.0917,-7.1036,-7.0947,-7.0908,-7.0939,-7.0936,-7.1023,-7.1033,-7.1063,-7.119,-7.1195,-7.11,-7.1105,-7.1108,-7.111,0,0,0,0,0,0,0,-7.0684,-7.0702,-7.0883,-7.0843,-7.0846,-7.0843,-7.0855,-7.094,-7.0981,-7.0911,-7.0911,-7.0926,-7.1024,-7.1056,-7.1066,-7.1197,-7.11,-7.1107,-7.1111,-7.1114,-7.1421,-7.1424,0,0,0,0,0,0,-7.0674,-7.0696,-7.0879,-7.0887,-7.076,-7.0849,-7.0864,-7.0908,-7.098,-7.0988,-7.0928,-7.0924,-7.1044,-7.1057,-7.107,-7.1202,-7.1108,-7.1115,-7.112,-7.1417,-7.1421,-7.1425,0,0,0,0,0,0,-7.0669,-7.069,-7.0874,-7.0791,-7.0814,-7.0857,-7.0907,-7.0912,-7.0944,-7.0992,-7.1,-7.0953,-7.1042,-7.1059,-7.1156,-7.1206,-7.1119,-7.1126,-7.1413,-7.1419,-7.1423,-7.1466,0,0,0,0,0,0,-7.0661,-7.0689,-7.073,-7.0792,-7.0819,-7.0958,-7.091,-7.0917,-7.0958,-7.0955,-7.1018,-7.1026,-7.1041,-7.1145,-7.1164,-7.1215,-7.1132,-7.1409,-7.1416,-7.1422,-7.1461,-7.1473,-7.1483,0,0,0,0,0,-7.0653,-7.0736,-7.0732,-7.0754,-7.0871,-7.0961,-7.0976,-7.0992,-7.0962,-7.1004,-7.1036,-7.1024,-7.1199,-7.1155,-7.1176,-7.1231,-7.1406,-7.1414,-7.1421,-7.1456,-7.147,-7.1482,0,0,0,0,0,0,-7.0676,-7.0744,-7.074,-7.0846,-7.0898,-7.0958,-7.1011,-7.1007,-7.1067,-7.1061,-7.1079,-7.1094,-7.1192,-7.1222,-7.1172,-7.1341,-7.1298,-7.131,-7.1317,-7.1331,-7.1342,-7.1331,-7.1138,0,0,0,0,0,-7.0694,-7.0761,-7.0817,-7.0905,-7.0932,-7.0967,-7.1007,-7.1016,-7.107,-7.1091,-7.1129,-7.1182,-7.1249,-7.1292,-7.1356,-7.1467,-7.148,-7.1515,-7.1526,-7.1535,-7.1544,-7.1606,-7.1622,-7.1451,-7.1451,-7.1451,0,0,-7.073,-7.0776,-7.0817,-7.0911,-7.0952,-7.1022,-7.0985,-7.106,-7.1111,-7.1102,-7.1195,-7.1227,-7.1286,-7.1391,-7.1439,-7.1418,-7.1596,-7.1545,-7.1551,-7.1556,-7.1616,-7.1632,-7.1646,-7.1456,-7.1455,-7.1454,0,0,-7.0832,-7.0874,-7.0952,-7.0995,-7.1059,-7.1083,-7.1102,-7.1164,-7.1184,-7.1279,-7.1274,-7.1337,-7.1451,-7.1495,-7.1532,-7.1656,-7.1647,-7.1676,-7.1732,-7.1792,-7.1805,-7.1817,-7.1861,-7.1876,-7.1686,-7.1686,-7.1687,0,-7.0869,-7.0973,-7.0993,-7.1069,-7.1111,-7.1109,-7.1189,-7.1229,-7.131,-7.1339,-7.1316,-7.1462,-7.1502,-7.1617,-7.1648,-7.1679,-7.1701,-7.1667,-7.1802,-7.1814,-7.1826,-7.1867,-7.1884,-7.1689,-7.1689,-7.1689,-7.1689,0,-7.1015,-7.1088,-7.1144,-7.1224,-7.1273,-7.1351,-7.1383,-7.143,-7.1436,-7.1463,-7.1561,-7.161,-7.1685,-7.1714,-7.172,-7.1831,-7.1816,-7.1798,-7.1754,-7.1845,-7.1884,-7.19,-7.1694,-7.1693,-7.1692,-7.1691,0,0,-7.113,-7.1224,-7.1244,-7.1281,-7.1353,-7.141,-7.1489,-7.1563,-7.1603,-7.1661,-7.1727,-7.1827,-7.1811,-7.1853,-7.1865,-7.1918,-7.2013,-7.1894,-7.1895,-7.1913,-7.2139,-7.215,-7.2168,-7.201,-7.2013,-7.2016,-7.2133,0,-7.1238,-7.1377,-7.1399,-7.1521,-7.1589,-7.1591,-7.1659,-7.1711,-7.174,-7.1802,-7.1833,-7.1903,-7.1878,-7.1903,-7.1956,-7.199,-7.2058,-7.1983,-7.207,-7.2073,-7.2052,-7.2189,-7.2201,-7.2309,-7.2149,-7.2151,-7.2153,0,-7.138,-7.1443,-7.1573,-7.1638,-7.1668,-7.1729,-7.18,-7.186,-7.192,-7.1937,-7.1987,-7.1994,-7.2076,-7.2033,-7.2147,-7.2095,-7.2133,-7.2156,-7.2161,-7.2167,-7.2116,-7.2197,-7.2344,-7.2359,-7.2178,-7.2176,-7.2174,0,-7.1449,-7.1567,-7.166,-7.1692,-7.1771,-7.1814,-7.1849,-7.1907,-7.1951,-7.2015,-7.2044,-7.2116,-7.2154,-7.221,-7.2236,-7.2203,-7.2349,-7.2308,-7.2365,-7.2364,-7.2392,-7.239,-7.2545,-7.2421,-7.2421,-7.2421,-7.2421,0,-7.1565,-7.1644,-7.1693,-7.1749,-7.1838,-7.1865,-7.1952,-7.1986,-7.2038,-7.2102,-7.2109,-7.2168,-7.22,-7.2265,-7.2287,-7.2378,-7.2396,-7.2412,-7.2416,-7.241,-7.2408,-7.2433,-7.2425,-7.2425,-7.2424,-7.2423,-7.2423,0,-7.1656,-7.1692,-7.1793,-7.1861,-7.188,-7.1943,-7.2001,-7.2057,-7.2087,-7.2168,-7.2189,-7.2235,-7.2313,-7.2346,-7.244,-7.2455,-7.2559,-7.2559,-7.2538,-7.2539,-7.2594,-7.2588,-7.2769,-7.2794,-7.2656,-7.2657,-7.2658,0,-7.1726,-7.1787,-7.1863,-7.1907,-7.1943,-7.2014,-7.206,-7.209,-7.2138,-7.2213,-7.226,-7.2338,-7.2401,-7.2525,-7.2567,-7.264,-7.264,-7.2699,-7.2651,-7.2644,-7.264,-7.2635,-7.2641,-7.2707,-7.2708,-7.2709,-7.271,0,-7.1846,-7.1862,-7.1929,-7.2003,-7.2058,-7.2118,-7.2176,-7.2212,-7.2251,-7.2304,-7.2384,-7.2434,-7.2532,-7.2609,-7.2686,-7.2722,-7.2723,-7.2726,-7.2743,-7.2735,-7.272,-7.2728,-7.256,-7.272,-7.2719,-7.2719,-7.2718,-7.2718,-7.1928,-7.1983,-7.2045,-7.212,-7.2168,-7.2223,-7.2279,-7.2318,-7.2385,-7.2467,-7.2482,-7.2567,-7.2629,-7.2732,-7.2772,-7.2839,-7.2824,-7.2849,-7.2855,-7.286,-7.2863,-7.2713,-7.2853,-7.2853,-7.2853,-7.2853,-7.2853,0,-7.2048,-7.2089,-7.2158,-7.224,-7.23,-7.2298,-7.2363,-7.2413,-7.2488,-7.2546,-7.2609,-7.2702,-7.2778,-7.2829,-7.2906,-7.295,-7.2953,-7.2969,-7.2965,-7.2973,-7.2872,-7.2849,-7.2966,-7.2966,-7.2966,-7.2966,-7.2966,-7.2966,-7.2116,-7.2209,-7.2233,-7.2351,-7.2392,-7.2476,-7.2513,-7.2565,-7.2611,-7.2715,-7.2779,-7.2812,-7.2867,-7.2949,-7.3019,-7.3032,-7.306,-7.3077,-7.3089,-7.2992,-7.298,-7.2969,-7.2947,-7.3083,-7.3083,-7.3184,-7.3185,-7.3186]},{"header":{"parameterUnit":"m.s-1","parameterCategory":1,"la1":30.2991,"la2":30.254,"lo1":-89.0895,"lo2":-89.0444,"dy":0.0017,"dx":0.0017,"nx":28,"ny":28,"refTime":"2024-04-28T21:00:00:Z","depth":0,"parameterNumber":3,"parameterNumberName":"V-component_of_WINDS"},"data":[0,0,0,0,0,0,0,0,0,0,0,0,0,0,0,0,0,0,0,0,0,0,0,0,0,0,0,0,0,0,0,0,0,0,0,0,0,0,0,0,0,0,0,0,0,0,0,0,0,0,0,0,0,0,0,0,0,0,4.0572,4.0572,0,4.0571,4.0571,4.0571,4.0583,4.0583,4.0584,4.0584,4.0578,4.0577,4.0577,0,0,0,0,0,0,0,0,0,0,0,0,0,4.0584,4.0583,4.0572,4.0572,4.0572,4.0571,4.0571,4.0571,4.0583,4.0583,4.0584,4.0584,4.0578,4.0577,4.0577,0,0,0,0,0,0,0,0,0,0,0,0,0,4.058,4.0583,4.0572,4.0578,4.0579,4.0571,4.0571,4.0571,4.0583,4.0583,4.0584,4.0584,4.0578,4.0577,4.0577,4.0561,0,0,4.0574,4.0574,0,0,0,0,0,0,0,0,4.058,4.0579,4.0577,4.0578,4.0578,4.0578,4.0572,4.0567,4.0583,4.0581,4.0584,4.0585,4.0577,4.0576,4.0575,4.0561,4.0561,4.0574,4.0574,4.0573,4.0573,0,0,0,0,0,0,0,4.058,4.058,4.0572,4.0577,4.0578,4.058,4.058,4.0571,4.0576,4.0581,4.0582,4.0582,4.0577,4.0575,4.0575,4.0561,4.0574,4.0573,4.0573,4.0573,4.0537,4.0536,0,0,0,0,0,0,4.058,4.058,4.0572,4.0572,4.0581,4.058,4.058,4.0577,4.0576,4.0576,4.0582,4.0583,4.0576,4.0575,4.0574,4.0558,4.0573,4.0573,4.0572,4.0537,4.0537,4.0536,0,0,0,0,0,0,4.0581,4.0579,4.0572,4.0576,4.0575,4.0579,4.0576,4.0577,4.0575,4.0576,4.0577,4.0579,4.0577,4.0575,4.0565,4.0558,4.0572,4.0572,4.0538,4.0537,4.0537,4.0525,0,0,0,0,0,0,4.0581,4.0579,4.0574,4.0576,4.0575,4.0563,4.0576,4.0577,4.0574,4.0576,4.0574,4.0574,4.0577,4.0566,4.0565,4.0557,4.0571,4.0539,4.0538,4.0537,4.0526,4.0523,4.0522,0,0,0,0,0,4.0581,4.0569,4.0574,4.0573,4.0568,4.0563,4.0562,4.0567,4.0574,4.0568,4.057,4.0574,4.0559,4.0565,4.0563,4.0556,4.0539,4.0538,4.0537,4.0526,4.0524,4.0522,0,0,0,0,0,0,4.0564,4.0569,4.0574,4.0563,4.0563,4.0565,4.0558,4.0564,4.056,4.0561,4.0566,4.0566,4.0555,4.0554,4.0561,4.0542,4.055,4.0549,4.0543,4.0541,4.0539,4.0539,4.057,0,0,0,0,0,4.0559,4.0555,4.056,4.0549,4.0549,4.0554,4.0551,4.0555,4.0555,4.0554,4.0554,4.0552,4.0548,4.0544,4.0539,4.0526,4.0526,4.052,4.0518,4.0516,4.0515,4.051,4.0507,4.0533,4.0533,4.0533,0,0,4.0549,4.0551,4.0548,4.0546,4.0546,4.0542,4.0553,4.0547,4.0544,4.0552,4.0544,4.0544,4.0543,4.0532,4.0526,4.053,4.0508,4.0515,4.0513,4.0513,4.0508,4.0506,4.0504,4.0532,4.0532,4.0532,0,0,4.0527,4.0528,4.0521,4.0522,4.0523,4.0527,4.0525,4.0527,4.0529,4.0521,4.0528,4.0523,4.0514,4.0514,4.0512,4.0494,4.0499,4.0492,4.0482,4.0476,4.0475,4.0473,4.0468,4.0465,4.0491,4.0491,4.049,0,4.0513,4.0508,4.0516,4.0511,4.051,4.052,4.0513,4.0513,4.0511,4.0511,4.0516,4.0507,4.0506,4.0496,4.0492,4.049,4.0488,4.0492,4.0474,4.0473,4.0471,4.0466,4.0464,4.049,4.049,4.049,4.049,0,4.0492,4.0488,4.0482,4.0484,4.0482,4.0475,4.0482,4.0479,4.0484,4.0488,4.048,4.048,4.0477,4.0475,4.0478,4.0466,4.0469,4.0474,4.0482,4.0468,4.0464,4.0462,4.0489,4.0489,4.0489,4.0489,0,0,4.0458,4.0467,4.0464,4.0466,4.0469,4.0466,4.0461,4.046,4.0458,4.0457,4.0453,4.0447,4.0453,4.0451,4.0455,4.0451,4.0438,4.0457,4.0457,4.0454,4.0426,4.0423,4.042,4.0442,4.0442,4.0441,4.0427,0,4.0439,4.0431,4.0439,4.0429,4.0427,4.0438,4.0433,4.0435,4.0438,4.0436,4.0439,4.0435,4.0443,4.0442,4.0438,4.0441,4.0433,4.0442,4.0438,4.0438,4.0438,4.0418,4.0413,4.04,4.0425,4.0425,4.0424,0,4.0414,4.0416,4.0407,4.0413,4.0412,4.0408,4.0409,4.0407,4.0409,4.0412,4.0412,4.0418,4.0413,4.0421,4.0415,4.0421,4.042,4.0421,4.0421,4.0421,4.043,4.0418,4.0395,4.0393,4.0421,4.0422,4.0422,0,4.0392,4.0391,4.0387,4.0388,4.0395,4.0392,4.0395,4.0398,4.0397,4.0398,4.0398,4.0397,4.0396,4.0396,4.0401,4.0407,4.0395,4.0403,4.0397,4.0397,4.0393,4.0394,4.0371,4.0392,4.0392,4.0392,4.0392,0,4.037,4.0364,4.0377,4.0374,4.0369,4.0378,4.0372,4.0375,4.0379,4.0376,4.0385,4.0382,4.039,4.0388,4.0393,4.0388,4.0387,4.0389,4.039,4.0389,4.0388,4.0388,4.0389,4.0392,4.0392,4.0392,4.0392,0,4.0344,4.0353,4.0348,4.0357,4.0359,4.0354,4.0361,4.0358,4.0363,4.0361,4.036,4.0368,4.0367,4.0373,4.0371,4.0374,4.0367,4.037,4.0367,4.0368,4.0362,4.0363,4.0339,4.0336,4.0358,4.0358,4.0358,0,4.0329,4.0326,4.0335,4.0335,4.0338,4.0337,4.0338,4.0347,4.0348,4.0352,4.0349,4.0349,4.0349,4.0347,4.0352,4.0352,4.0354,4.0346,4.0354,4.0354,4.0356,4.0356,4.0356,4.0344,4.0344,4.0344,4.0344,0,4.0303,4.0308,4.031,4.0313,4.0314,4.0317,4.032,4.0319,4.0329,4.0329,4.0329,4.033,4.0331,4.0331,4.0333,4.0334,4.0341,4.0341,4.034,4.0338,4.0337,4.0339,4.0363,4.0341,4.0342,4.0342,4.0342,4.0342,4.0283,4.0281,4.0288,4.029,4.0294,4.0297,4.0296,4.0302,4.0303,4.0306,4.0311,4.031,4.0315,4.0318,4.032,4.0319,4.0323,4.0321,4.032,4.032,4.0319,4.0338,4.0319,4.0319,4.0319,4.0319,4.0319,0,4.0258,4.0264,4.0266,4.0271,4.0273,4.0281,4.0285,4.0286,4.0286,4.029,4.0291,4.0292,4.0293,4.0299,4.0301,4.0299,4.0303,4.03,4.03,4.0301,4.0315,4.0317,4.0297,4.0297,4.0297,4.0297,4.0297,4.0297,4.0246,4.0244,4.025,4.025,4.0256,4.0257,4.0259,4.0262,4.0266,4.0267,4.0269,4.0274,4.0279,4.0281,4.0283,4.0284,4.0285,4.0281,4.0284,4.0297,4.0299,4.0301,4.0303,4.0281,4.0281,4.0269,4.0269,4.0269]}]]